AUA973 LOWW-BIKF

Flight info

Callsign AUA973
Flight time 4h 17m
Altitude 36000
Route BUWUT DCT DITIS DCT APRAQ DCT BALTU DCT VEXIL DCT KUMER DCT BADOS DCT DOSUR DCT BAVTA P992 LINVI DCT VALDI/M079F380 DCT ING DCT NASBU NASBU5N
Aircraft A321/M-SDE3FGHIRWY/LB1

Departure

Time 2026-04-25 02:14
Airport Vienna International Airport (LOWW)

Arrival

Time 2026-04-25 06:32
Airport Keflavik International Airport (BIKF)
Time Latitude Longitude Altitude Speed Heading
2026-04-25 02:08 48.11653 16.56442 609 ft 0 kts 206°
2026-04-25 02:11 48.11651 16.56440 621 ft 6 kts 205°
2026-04-25 02:11 48.11586 16.56394 620 ft 13 kts 203°
2026-04-25 02:11 48.11507 16.56390 616 ft 11 kts 147°
2026-04-25 02:12 48.11463 16.56496 613 ft 15 kts 117°
2026-04-25 02:12 48.11407 16.56666 614 ft 21 kts 116°
2026-04-25 02:12 48.11333 16.56893 625 ft 27 kts 116°
2026-04-25 02:12 48.11253 16.57139 618 ft 23 kts 115°
2026-04-25 02:13 48.11201 16.57230 609 ft 9 kts 163°
2026-04-25 02:13 48.11114 16.57186 614 ft 16 kts 206°
2026-04-25 02:13 48.11063 16.57136 617 ft 6 kts 238°
2026-04-25 02:13 48.11072 16.57056 622 ft 13 kts 295°
2026-04-25 02:14 48.11212 16.56622 613 ft 82 kts 295°
2026-04-25 02:14 48.11557 16.55573 622 ft 140 kts 296°
2026-04-25 02:14 48.12038 16.54065 736 ft 172 kts 296°
2026-04-25 02:14 48.12407 16.52432 1493 ft 167 kts 270°
2026-04-25 02:15 48.11891 16.50806 1944 ft 192 kts 230°
2026-04-25 02:15 48.10755 16.49552 2285 ft 212 kts 217°
2026-04-25 02:15 48.09471 16.48376 2802 ft 218 kts 217°
2026-04-25 02:15 48.08199 16.47143 3414 ft 216 kts 225°
2026-04-25 02:16 48.07270 16.45423 3814 ft 218 kts 245°
2026-04-25 02:16 48.06537 16.43332 3986 ft 242 kts 249°
2026-04-25 02:16 48.05804 16.40988 4573 ft 253 kts 250°
2026-04-25 02:16 48.05074 16.38579 5376 ft 256 kts 251°
2026-04-25 02:17 48.04343 16.36144 6192 ft 258 kts 251°
2026-04-25 02:17 48.03634 16.33671 6959 ft 259 kts 257°
2026-04-25 02:17 48.03331 16.31041 7636 ft 258 kts 274°
2026-04-25 02:17 48.03441 16.28353 8326 ft 261 kts 277°
2026-04-25 02:18 48.03526 16.26551 8776 ft 264 kts 277°
2026-04-25 02:18 48.03647 16.23782 9415 ft 270 kts 277°
2026-04-25 02:18 48.03941 16.21015 10082 ft 270 kts 290°
2026-04-25 02:18 48.04695 16.18432 10613 ft 277 kts 300°
2026-04-25 02:19 48.05634 16.15791 10759 ft 299 kts 300°
2026-04-25 02:19 48.06646 16.12961 11003 ft 315 kts 300°
2026-04-25 02:19 48.07686 16.10039 11539 ft 321 kts 300°
2026-04-25 02:19 48.08735 16.07074 12150 ft 325 kts 300°
2026-04-25 02:20 48.09792 16.04068 12773 ft 328 kts 299°
2026-04-25 02:20 48.10858 16.01026 13404 ft 332 kts 300°
2026-04-25 02:20 48.11974 15.97985 13993 ft 335 kts 305°
2026-04-25 02:20 48.13457 15.95296 14519 ft 336 kts 317°
2026-04-25 02:21 48.15298 15.93205 15080 ft 339 kts 329°
2026-04-25 02:21 48.17448 15.91722 15607 ft 342 kts 337°
2026-04-25 02:21 48.19671 15.90395 16181 ft 345 kts 337°
2026-04-25 02:21 48.21908 15.89052 16733 ft 348 kts 337°
2026-04-25 02:22 48.24158 15.87697 17265 ft 350 kts 336°
2026-04-25 02:22 48.26429 15.86328 17783 ft 353 kts 336°
2026-04-25 02:22 48.28723 15.84941 18301 ft 356 kts 336°
2026-04-25 02:22 48.31035 15.83538 18753 ft 359 kts 336°
2026-04-25 02:23 48.33359 15.82126 19205 ft 361 kts 336°
2026-04-25 02:23 48.35701 15.80707 19652 ft 363 kts 336°
2026-04-25 02:23 48.38058 15.79285 20098 ft 366 kts 336°
2026-04-25 02:23 48.40423 15.77853 20523 ft 368 kts 336°
2026-04-25 02:24 48.42801 15.76404 20939 ft 370 kts 336°
2026-04-25 02:24 48.45190 15.74948 21340 ft 372 kts 336°
2026-04-25 02:24 48.47598 15.73483 21735 ft 374 kts 336°
2026-04-25 02:24 48.49981 15.72031 22133 ft 376 kts 336°
2026-04-25 02:25 48.52412 15.70550 22523 ft 378 kts 336°
2026-04-25 02:25 48.54855 15.69059 22916 ft 380 kts 336°
2026-04-25 02:25 48.57312 15.67556 23301 ft 382 kts 336°
2026-04-25 02:25 48.59779 15.66041 23685 ft 384 kts 336°
2026-04-25 02:26 48.62264 15.64516 24021 ft 386 kts 336°
2026-04-25 02:26 48.64756 15.62989 24363 ft 388 kts 336°
2026-04-25 02:26 48.67209 15.61291 24698 ft 387 kts 328°
2026-04-25 02:26 48.69406 15.58954 25023 ft 387 kts 317°
2026-04-25 02:27 48.71260 15.56009 25358 ft 387 kts 307°
2026-04-25 02:27 48.72717 15.52574 25689 ft 389 kts 299°
2026-04-25 02:27 48.74023 15.48979 26042 ft 390 kts 299°
2026-04-25 02:27 48.75343 15.45381 26386 ft 391 kts 299°
2026-04-25 02:28 48.76672 15.41769 26723 ft 393 kts 299°
2026-04-25 02:28 48.78003 15.38143 27061 ft 394 kts 299°
2026-04-25 02:28 48.79337 15.34504 27394 ft 396 kts 299°
2026-04-25 02:28 48.80717 15.30888 27725 ft 397 kts 303°
2026-04-25 02:29 48.82305 15.27514 28039 ft 399 kts 305°
2026-04-25 02:29 48.83930 15.24090 28360 ft 400 kts 305°
2026-04-25 02:29 48.85554 15.20653 28679 ft 401 kts 305°
2026-04-25 02:29 48.87183 15.17195 28990 ft 403 kts 304°
2026-04-25 02:30 48.88817 15.13737 29295 ft 404 kts 306°
2026-04-25 02:30 48.90678 15.10531 29592 ft 407 kts 315°
2026-04-25 02:30 48.92823 15.07700 29879 ft 409 kts 317°
2026-04-25 02:30 48.94998 15.04890 30168 ft 410 kts 317°
2026-04-25 02:31 48.97175 15.02070 30405 ft 412 kts 317°
2026-04-25 02:31 48.99356 14.99232 30639 ft 413 kts 317°
2026-04-25 02:31 49.01538 14.96385 30863 ft 414 kts 317°
2026-04-25 02:31 49.03728 14.93522 31083 ft 415 kts 317°
2026-04-25 02:32 49.05928 14.90645 31297 ft 416 kts 317°
2026-04-25 02:32 49.08118 14.87780 31597 ft 415 kts 317°
2026-04-25 02:32 49.10301 14.84919 31905 ft 413 kts 317°
2026-04-25 02:32 49.12480 14.82059 32204 ft 412 kts 316°
2026-04-25 02:33 49.14648 14.79205 32496 ft 411 kts 316°
2026-04-25 02:33 49.16816 14.76351 32798 ft 410 kts 316°
2026-04-25 02:33 49.18973 14.73507 33074 ft 410 kts 316°
2026-04-25 02:33 49.21102 14.70695 33362 ft 409 kts 316°
2026-04-25 02:34 49.23249 14.67851 33647 ft 408 kts 316°
2026-04-25 02:34 49.25395 14.65013 33939 ft 407 kts 316°
2026-04-25 02:34 49.27535 14.62183 34210 ft 407 kts 316°
2026-04-25 02:34 49.29674 14.59354 34456 ft 406 kts 316°
2026-04-25 02:35 49.31807 14.56529 34688 ft 405 kts 316°
2026-04-25 02:35 49.33933 14.53708 34935 ft 404 kts 316°
2026-04-25 02:35 49.36057 14.50882 35177 ft 403 kts 316°
2026-04-25 02:35 49.38171 14.48065 35413 ft 402 kts 315°
2026-04-25 02:36 49.40280 14.45250 35651 ft 401 kts 315°
2026-04-25 02:36 49.42387 14.42438 35870 ft 401 kts 315°
2026-04-25 02:36 49.44490 14.39631 36048 ft 401 kts 315°
2026-04-25 02:37 49.48661 14.34051 36102 ft 395 kts 315°
2026-04-25 02:37 49.52790 14.28502 36102 ft 393 kts 315°
2026-04-25 02:38 49.56908 14.22951 36098 ft 393 kts 315°
2026-04-25 02:38 49.61028 14.17388 36100 ft 393 kts 315°
2026-04-25 02:39 49.65091 14.11766 36102 ft 391 kts 310°
2026-04-25 02:39 49.68664 14.05464 36109 ft 390 kts 308°
2026-04-25 02:40 49.72218 13.99137 36105 ft 390 kts 308°
2026-04-25 02:40 49.75739 13.92824 36109 ft 390 kts 308°
2026-04-25 02:41 49.79281 13.86465 36108 ft 389 kts 308°
2026-04-25 02:41 49.82816 13.80114 36111 ft 389 kts 308°
2026-04-25 02:42 49.86351 13.73750 36112 ft 389 kts 307°
2026-04-25 02:42 49.89883 13.67378 36111 ft 389 kts 307°
2026-04-25 02:43 49.93408 13.60983 36106 ft 389 kts 307°
2026-04-25 02:43 49.96904 13.54635 36100 ft 389 kts 307°
2026-04-25 02:44 50.00423 13.48236 36093 ft 389 kts 307°
2026-04-25 02:44 50.03932 13.41821 36089 ft 390 kts 307°
2026-04-25 02:45 50.07453 13.35389 36085 ft 390 kts 307°
2026-04-25 02:45 50.10716 13.28691 36085 ft 388 kts 302°
2026-04-25 02:46 50.13772 13.21759 36080 ft 388 kts 301°
2026-04-25 02:46 50.16831 13.14811 36081 ft 389 kts 301°
2026-04-25 02:47 50.19895 13.07840 36082 ft 389 kts 301°
2026-04-25 02:47 50.22955 13.00860 36083 ft 389 kts 301°
2026-04-25 02:48 50.26010 12.93862 36089 ft 390 kts 301°
2026-04-25 02:48 50.29060 12.86848 36092 ft 390 kts 301°
2026-04-25 02:49 50.32107 12.79833 36098 ft 390 kts 301°
2026-04-25 02:49 50.35147 12.72815 36104 ft 389 kts 301°
2026-04-25 02:50 50.38183 12.65791 36102 ft 389 kts 301°
2026-04-25 02:50 50.41642 12.59301 36108 ft 392 kts 309°
2026-04-25 02:51 50.45364 12.53055 36112 ft 392 kts 309°
2026-04-25 02:51 50.49080 12.46793 36113 ft 392 kts 309°
2026-04-25 02:52 50.52791 12.40520 36117 ft 392 kts 309°
2026-04-25 02:52 50.56497 12.34232 36112 ft 392 kts 309°
2026-04-25 02:53 50.60201 12.27925 36115 ft 392 kts 309°
2026-04-25 02:53 50.63907 12.21615 36112 ft 393 kts 309°
2026-04-25 02:54 50.67613 12.15278 36121 ft 393 kts 309°
2026-04-25 02:54 50.71292 12.08976 36123 ft 393 kts 309°
2026-04-25 02:55 50.75023 12.02579 36124 ft 393 kts 309°
2026-04-25 02:55 50.78729 11.96212 36122 ft 393 kts 309°
2026-04-25 02:56 50.82419 11.89834 36129 ft 393 kts 309°
2026-04-25 02:56 50.86115 11.83444 36137 ft 394 kts 309°
2026-04-25 02:57 50.89784 11.77083 36132 ft 394 kts 308°
2026-04-25 02:57 50.93470 11.70665 36134 ft 394 kts 308°
2026-04-25 02:58 50.97161 11.64230 36138 ft 394 kts 308°
2026-04-25 02:58 51.00852 11.57786 36137 ft 394 kts 308°
2026-04-25 02:59 51.04537 11.51337 36135 ft 394 kts 308°
2026-04-25 02:59 51.08195 11.44931 36137 ft 394 kts 308°
2026-04-25 03:00 51.11873 11.38457 36138 ft 394 kts 308°
2026-04-25 03:00 51.15539 11.31979 36125 ft 394 kts 308°
2026-04-25 03:01 51.19202 11.25489 36128 ft 394 kts 308°
2026-04-25 03:01 51.22860 11.18992 36125 ft 393 kts 308°
2026-04-25 03:02 51.26515 11.12485 36130 ft 393 kts 308°
2026-04-25 03:02 51.30136 11.06029 36136 ft 393 kts 308°
2026-04-25 03:03 51.33783 10.99519 36136 ft 393 kts 308°
2026-04-25 03:03 51.37424 10.92991 36128 ft 393 kts 308°
2026-04-25 03:04 51.41058 10.86457 36126 ft 393 kts 308°
2026-04-25 03:04 51.44695 10.79916 36126 ft 393 kts 308°
2026-04-25 03:05 51.49525 10.71173 36127 ft 393 kts 308°
2026-04-25 03:05 51.53430 10.64987 36135 ft 400 kts 320°
2026-04-25 03:06 51.58516 10.61119 36138 ft 412 kts 337°
2026-04-25 03:06 51.64016 10.58434 36139 ft 413 kts 336°
2026-04-25 03:07 51.69496 10.55706 36142 ft 412 kts 336°
2026-04-25 03:07 51.74975 10.52960 36148 ft 412 kts 336°
2026-04-25 03:08 51.80457 10.50206 36152 ft 413 kts 336°
2026-04-25 03:08 51.85906 10.47477 36157 ft 413 kts 336°
2026-04-25 03:09 51.91387 10.44735 36159 ft 412 kts 336°
2026-04-25 03:09 51.96867 10.41980 36160 ft 412 kts 336°
2026-04-25 03:10 52.02343 10.39214 36157 ft 412 kts 336°
2026-04-25 03:10 52.07806 10.36440 36152 ft 411 kts 336°
2026-04-25 03:11 52.13271 10.33661 36145 ft 411 kts 336°
2026-04-25 03:11 52.18734 10.30880 36140 ft 411 kts 336°
2026-04-25 03:12 52.24163 10.28111 36138 ft 411 kts 336°
2026-04-25 03:12 52.29624 10.25314 36135 ft 412 kts 336°
2026-04-25 03:13 52.35094 10.22514 36130 ft 412 kts 336°
2026-04-25 03:13 52.40564 10.19705 36145 ft 412 kts 336°
2026-04-25 03:14 52.46037 10.16885 36142 ft 412 kts 336°
2026-04-25 03:14 52.51513 10.14054 36144 ft 412 kts 336°
2026-04-25 03:15 52.56987 10.11206 36145 ft 413 kts 336°
2026-04-25 03:15 52.62471 10.08354 36144 ft 413 kts 336°
2026-04-25 03:16 52.67964 10.05499 36145 ft 414 kts 337°
2026-04-25 03:16 52.73456 10.02638 36144 ft 414 kts 337°
2026-04-25 03:17 52.78958 9.99751 36121 ft 415 kts 337°
2026-04-25 03:17 52.84417 9.96872 36122 ft 415 kts 338°
2026-04-25 03:18 52.89930 9.93968 36117 ft 415 kts 338°
2026-04-25 03:18 52.95438 9.91062 36117 ft 416 kts 338°
2026-04-25 03:19 53.00958 9.88143 36118 ft 416 kts 338°
2026-04-25 03:19 53.06472 9.85211 36120 ft 416 kts 339°
2026-04-25 03:20 53.11989 9.82267 36121 ft 416 kts 339°
2026-04-25 03:20 53.17507 9.79327 36121 ft 416 kts 339°
2026-04-25 03:21 53.22992 9.76398 36118 ft 416 kts 339°
2026-04-25 03:21 53.28513 9.73432 36116 ft 416 kts 339°
2026-04-25 03:22 53.34034 9.70458 36111 ft 416 kts 340°
2026-04-25 03:22 53.39545 9.67486 36110 ft 416 kts 340°
2026-04-25 03:23 53.45060 9.64503 36109 ft 416 kts 340°
2026-04-25 03:23 53.50572 9.61509 36114 ft 416 kts 340°
2026-04-25 03:24 53.56076 9.58519 36114 ft 416 kts 340°
2026-04-25 03:24 53.61582 9.55518 36117 ft 416 kts 340°
2026-04-25 03:25 53.67082 9.52517 36119 ft 415 kts 340°
2026-04-25 03:25 53.72583 9.49501 36120 ft 415 kts 340°
2026-04-25 03:26 53.78076 9.46479 36114 ft 415 kts 340°
2026-04-25 03:26 53.83537 9.43467 36113 ft 415 kts 339°
2026-04-25 03:27 53.89021 9.40431 36108 ft 414 kts 339°
2026-04-25 03:27 53.94501 9.37394 36108 ft 414 kts 339°
2026-04-25 03:28 53.99962 9.34345 36100 ft 413 kts 339°
2026-04-25 03:28 54.05423 9.31295 36093 ft 413 kts 339°
2026-04-25 03:29 54.10883 9.28246 36088 ft 412 kts 339°
2026-04-25 03:29 54.16291 9.25215 36087 ft 411 kts 339°
2026-04-25 03:30 54.21727 9.22170 36089 ft 411 kts 339°
2026-04-25 03:30 54.27153 9.19113 36086 ft 410 kts 339°
2026-04-25 03:31 54.32562 9.16048 36091 ft 409 kts 339°
2026-04-25 03:31 54.38120 9.13890 36093 ft 414 kts 353°
2026-04-25 03:32 54.43909 9.14336 36089 ft 417 kts 360°
2026-04-25 03:32 54.49669 9.15035 36085 ft 417 kts 359°
2026-04-25 03:33 54.55459 9.15734 36085 ft 417 kts 359°
2026-04-25 03:33 54.61239 9.16420 36087 ft 416 kts 359°
2026-04-25 03:34 54.67014 9.17108 36083 ft 416 kts 359°
2026-04-25 03:34 54.72791 9.17810 36087 ft 415 kts 359°
2026-04-25 03:35 54.78557 9.18519 36080 ft 415 kts 359°
2026-04-25 03:35 54.84256 9.18369 36062 ft 404 kts 344°
2026-04-25 03:36 54.89419 9.15125 36064 ft 394 kts 327°
2026-04-25 03:36 54.93971 9.09869 36052 ft 392 kts 323°
2026-04-25 03:37 54.98490 9.04536 36049 ft 392 kts 323°
2026-04-25 03:37 55.03009 8.99185 36049 ft 392 kts 323°
2026-04-25 03:38 55.07517 8.93820 36051 ft 392 kts 323°
2026-04-25 03:38 55.12026 8.88457 36055 ft 392 kts 323°
2026-04-25 03:39 55.16532 8.83078 36052 ft 392 kts 323°
2026-04-25 03:39 55.21030 8.77690 36055 ft 391 kts 323°
2026-04-25 03:40 55.25517 8.72308 36062 ft 391 kts 323°
2026-04-25 03:40 55.29999 8.66919 36066 ft 391 kts 322°
2026-04-25 03:41 55.34471 8.61510 36066 ft 390 kts 322°
2026-04-25 03:41 55.38943 8.56090 36067 ft 390 kts 322°
2026-04-25 03:42 55.43375 8.50702 36066 ft 390 kts 322°
2026-04-25 03:42 55.47831 8.45272 36070 ft 389 kts 322°
2026-04-25 03:43 55.52285 8.39846 36073 ft 389 kts 322°
2026-04-25 03:43 55.56743 8.34392 36069 ft 389 kts 322°
2026-04-25 03:44 55.61323 8.29272 36066 ft 392 kts 332°
2026-04-25 03:44 55.66369 8.25532 36067 ft 393 kts 333°
2026-04-25 03:45 55.71421 8.21794 36068 ft 393 kts 333°
2026-04-25 03:45 55.76466 8.18037 36066 ft 393 kts 333°
2026-04-25 03:46 55.81508 8.14264 36070 ft 393 kts 333°
2026-04-25 03:46 55.86556 8.10494 36072 ft 393 kts 333°
2026-04-25 03:47 55.91572 8.06741 36070 ft 393 kts 333°
2026-04-25 03:47 55.96618 8.02951 36074 ft 393 kts 333°
2026-04-25 03:48 56.01662 7.99139 36061 ft 393 kts 333°
2026-04-25 03:48 56.06707 7.95324 36059 ft 394 kts 333°
2026-04-25 03:49 56.11749 7.91494 36056 ft 394 kts 333°
2026-04-25 03:49 56.16791 7.87652 36056 ft 394 kts 333°
2026-04-25 03:50 56.21835 7.83799 36050 ft 394 kts 333°
2026-04-25 03:50 56.26879 7.79950 36048 ft 394 kts 333°
2026-04-25 03:51 56.31925 7.76091 36045 ft 394 kts 333°
2026-04-25 03:51 56.36117 7.72874 36042 ft 394 kts 333°
2026-04-25 03:52 56.41978 7.68359 36046 ft 394 kts 333°
2026-04-25 03:52 56.46202 7.65091 36048 ft 394 kts 333°
2026-04-25 03:53 56.51235 7.61177 36048 ft 393 kts 333°
2026-04-25 03:53 56.56239 7.57280 36050 ft 393 kts 333°
2026-04-25 03:54 56.61261 7.53362 36052 ft 393 kts 333°
2026-04-25 03:54 56.66286 7.49436 36051 ft 392 kts 333°
2026-04-25 03:55 56.71298 7.45499 36047 ft 392 kts 332°
2026-04-25 03:55 56.76301 7.41556 36050 ft 391 kts 332°
2026-04-25 03:56 56.81293 7.37626 36052 ft 390 kts 332°
2026-04-25 03:56 56.86267 7.33676 36049 ft 389 kts 332°
2026-04-25 03:57 56.91230 7.29720 36046 ft 389 kts 332°
2026-04-25 03:57 56.96152 7.25797 36046 ft 388 kts 332°
2026-04-25 03:58 57.00925 7.21363 36045 ft 381 kts 321°
2026-04-25 03:58 57.05079 7.15360 36045 ft 379 kts 319°
2026-04-25 03:59 57.09210 7.09340 36044 ft 379 kts 319°
2026-04-25 03:59 57.13332 7.03325 36045 ft 378 kts 319°
2026-04-25 04:00 57.17443 6.97288 36045 ft 377 kts 319°
2026-04-25 04:00 57.21540 6.91251 36042 ft 377 kts 319°
2026-04-25 04:01 57.25631 6.85219 36042 ft 376 kts 319°
2026-04-25 04:01 57.29718 6.79181 36063 ft 377 kts 319°
2026-04-25 04:02 57.33791 6.73145 36026 ft 374 kts 319°
2026-04-25 04:02 57.37827 6.67156 36020 ft 374 kts 319°
2026-04-25 04:03 57.41893 6.61086 36027 ft 375 kts 319°
2026-04-25 04:03 57.45953 6.55005 36026 ft 376 kts 319°
2026-04-25 04:04 57.50018 6.48887 36026 ft 376 kts 319°
2026-04-25 04:04 57.54087 6.42751 36016 ft 377 kts 319°
2026-04-25 04:05 57.58164 6.36610 36014 ft 377 kts 319°
2026-04-25 04:05 57.62247 6.30446 36007 ft 378 kts 319°
2026-04-25 04:06 57.66324 6.24257 36010 ft 378 kts 319°
2026-04-25 04:06 57.70405 6.18037 36002 ft 379 kts 319°
2026-04-25 04:07 57.74460 6.11833 36011 ft 379 kts 319°
2026-04-25 04:07 57.78543 6.05562 36004 ft 380 kts 318°
2026-04-25 04:08 57.82637 5.99265 36011 ft 380 kts 318°
2026-04-25 04:08 57.86732 5.92956 36006 ft 381 kts 318°
2026-04-25 04:09 57.90826 5.86629 36013 ft 381 kts 318°
2026-04-25 04:09 57.94924 5.80280 36008 ft 382 kts 318°
2026-04-25 04:10 57.99026 5.73909 36017 ft 382 kts 318°
2026-04-25 04:10 58.03093 5.67570 36016 ft 382 kts 318°
2026-04-25 04:11 58.09229 5.57937 36015 ft 382 kts 318°
2026-04-25 04:12 58.13321 5.51493 36024 ft 382 kts 318°
2026-04-25 04:12 58.17414 5.45042 36023 ft 383 kts 318°
2026-04-25 04:13 58.21502 5.38570 36028 ft 383 kts 317°
2026-04-25 04:13 58.25584 5.32076 36026 ft 383 kts 317°
2026-04-25 04:14 58.29668 5.25582 36037 ft 382 kts 317°
2026-04-25 04:14 58.33716 5.19131 36035 ft 382 kts 317°
2026-04-25 04:15 58.37792 5.12600 36043 ft 382 kts 317°
2026-04-25 04:15 58.41851 5.06063 36039 ft 382 kts 317°
2026-04-25 04:16 58.45911 4.99519 36043 ft 382 kts 317°
2026-04-25 04:16 58.49959 4.92958 36042 ft 381 kts 317°
2026-04-25 04:17 58.54008 4.86394 36049 ft 381 kts 317°
2026-04-25 04:17 58.58027 4.79855 36044 ft 381 kts 317°
2026-04-25 04:18 58.62061 4.73267 36053 ft 381 kts 317°
2026-04-25 04:18 58.66089 4.66658 36046 ft 381 kts 317°
2026-04-25 04:19 58.70114 4.60049 36047 ft 380 kts 317°
2026-04-25 04:19 58.74137 4.53430 36058 ft 380 kts 316°
2026-04-25 04:20 58.78155 4.46794 36063 ft 380 kts 316°
2026-04-25 04:20 58.82161 4.40139 36046 ft 380 kts 316°
2026-04-25 04:21 58.86162 4.33478 36067 ft 380 kts 316°
2026-04-25 04:21 58.90161 4.26818 36058 ft 379 kts 316°
2026-04-25 04:22 58.94132 4.20169 36070 ft 379 kts 316°
2026-04-25 04:22 58.98112 4.13479 36058 ft 379 kts 316°
2026-04-25 04:23 59.02095 4.06768 36069 ft 379 kts 316°
2026-04-25 04:23 59.06074 4.00044 36052 ft 379 kts 316°
2026-04-25 04:24 59.10043 3.93307 36071 ft 379 kts 316°
2026-04-25 04:24 59.14020 3.86551 36062 ft 379 kts 316°
2026-04-25 04:25 59.17981 3.79779 36066 ft 379 kts 316°
2026-04-25 04:25 59.21939 3.72996 36063 ft 379 kts 316°
2026-04-25 04:26 59.25896 3.66189 36071 ft 379 kts 316°
2026-04-25 04:26 59.29821 3.59419 36069 ft 379 kts 316°
2026-04-25 04:27 59.33773 3.52589 36073 ft 379 kts 316°
2026-04-25 04:27 59.37729 3.45738 36073 ft 379 kts 316°
2026-04-25 04:28 59.41677 3.38862 36083 ft 379 kts 315°
2026-04-25 04:28 59.45618 3.31969 36077 ft 379 kts 316°
2026-04-25 04:29 59.49550 3.25089 36088 ft 379 kts 316°
2026-04-25 04:29 59.53486 3.18181 36083 ft 378 kts 315°
2026-04-25 04:30 59.57410 3.11259 36092 ft 378 kts 315°
2026-04-25 04:30 59.61334 3.04333 36081 ft 378 kts 315°
2026-04-25 04:31 59.65249 2.97391 36087 ft 378 kts 315°
2026-04-25 04:31 59.69134 2.90472 36077 ft 378 kts 315°
2026-04-25 04:32 59.73040 2.83500 36088 ft 378 kts 315°
2026-04-25 04:32 59.76940 2.76503 36084 ft 378 kts 315°
2026-04-25 04:33 59.80838 2.69491 36092 ft 378 kts 315°
2026-04-25 04:33 59.84727 2.62468 36090 ft 378 kts 315°
2026-04-25 04:34 59.88623 2.55438 36099 ft 378 kts 315°
2026-04-25 04:34 59.92515 2.48382 36100 ft 378 kts 315°
2026-04-25 04:35 59.96390 2.41308 36103 ft 377 kts 315°
2026-04-25 04:35 60.00264 2.34226 36099 ft 377 kts 315°
2026-04-25 04:36 60.04112 2.27173 36107 ft 377 kts 315°
2026-04-25 04:36 60.07977 2.20063 36103 ft 377 kts 315°
2026-04-25 04:37 60.11843 2.12932 36112 ft 377 kts 315°
2026-04-25 04:37 60.15701 2.05789 36111 ft 377 kts 315°
2026-04-25 04:38 60.19561 1.98631 36118 ft 377 kts 315°
2026-04-25 04:38 60.23411 1.91453 36124 ft 377 kts 315°
2026-04-25 04:39 60.26605 1.85469 36131 ft 377 kts 315°
2026-04-25 04:39 60.30449 1.78250 36127 ft 377 kts 315°
2026-04-25 04:40 60.34914 1.69842 36134 ft 378 kts 315°
2026-04-25 04:40 60.38748 1.62591 36127 ft 378 kts 315°
2026-04-25 04:41 60.41944 1.56532 36133 ft 378 kts 315°
2026-04-25 04:41 60.45774 1.49233 36139 ft 378 kts 315°
2026-04-25 04:42 60.49631 1.41875 36136 ft 378 kts 315°
2026-04-25 04:42 60.53436 1.34584 36143 ft 378 kts 315°
2026-04-25 04:43 60.57264 1.27238 36143 ft 379 kts 315°
2026-04-25 04:43 60.61097 1.19870 36148 ft 379 kts 315°
2026-04-25 04:44 60.64918 1.12485 36148 ft 379 kts 315°
2026-04-25 04:44 60.68732 1.05062 36153 ft 379 kts 315°
2026-04-25 04:45 60.72551 0.97596 36150 ft 379 kts 315°
2026-04-25 04:45 60.76370 0.90140 36159 ft 380 kts 315°
2026-04-25 04:46 60.80189 0.82654 36155 ft 380 kts 314°
2026-04-25 04:46 60.83979 0.75195 36167 ft 380 kts 315°
2026-04-25 04:47 60.87792 0.67675 36166 ft 380 kts 314°
2026-04-25 04:47 60.91600 0.60121 36169 ft 380 kts 314°
2026-04-25 04:48 60.95408 0.52547 36171 ft 381 kts 314°
2026-04-25 04:48 60.99216 0.44940 36176 ft 381 kts 314°
2026-04-25 04:49 61.03018 0.37318 36172 ft 382 kts 314°
2026-04-25 04:49 61.06825 0.29662 36170 ft 382 kts 314°
2026-04-25 04:50 61.10633 0.21992 36180 ft 383 kts 314°
2026-04-25 04:50 61.14440 0.14286 36178 ft 383 kts 314°
2026-04-25 04:51 61.18217 0.06608 36185 ft 383 kts 314°
2026-04-25 04:51 61.21727 -0.01652 36621 ft 381 kts 308°
2026-04-25 04:51 61.22962 -0.06472 36447 ft 375 kts 301°
2026-04-25 04:52 61.24078 -0.11320 36264 ft 370 kts 301°
2026-04-25 04:52 61.26306 -0.20911 36187 ft 368 kts 302°
2026-04-25 04:53 61.28531 -0.30488 36193 ft 368 kts 302°
2026-04-25 04:53 61.30743 -0.40083 36196 ft 368 kts 302°
2026-04-25 04:54 61.32929 -0.49641 36196 ft 368 kts 302°
2026-04-25 04:54 61.35126 -0.59289 36197 ft 368 kts 302°
2026-04-25 04:55 61.37320 -0.68953 36201 ft 369 kts 302°
2026-04-25 04:55 61.39507 -0.78633 36205 ft 369 kts 302°
2026-04-25 04:56 61.41684 -0.88343 36211 ft 369 kts 302°
2026-04-25 04:56 61.43861 -0.98060 36212 ft 369 kts 302°
2026-04-25 04:57 61.46019 -1.07735 36215 ft 369 kts 301°
2026-04-25 04:57 61.48181 -1.17491 36219 ft 369 kts 301°
2026-04-25 04:58 61.50336 -1.27255 36221 ft 370 kts 301°
2026-04-25 04:58 61.52489 -1.37037 36235 ft 370 kts 301°
2026-04-25 04:59 61.54635 -1.46844 36234 ft 370 kts 301°
2026-04-25 04:59 61.56772 -1.56658 36234 ft 370 kts 301°
2026-04-25 05:00 61.58898 -1.66503 36237 ft 370 kts 301°
2026-04-25 05:00 61.61021 -1.76341 36242 ft 370 kts 301°
2026-04-25 05:01 61.63124 -1.86133 36244 ft 370 kts 301°
2026-04-25 05:01 61.65240 -1.95999 36235 ft 370 kts 301°
2026-04-25 05:02 61.67338 -2.05889 36245 ft 370 kts 301°
2026-04-25 05:02 61.69428 -2.15795 36256 ft 370 kts 301°
2026-04-25 05:03 61.71517 -2.25703 36250 ft 370 kts 301°
2026-04-25 05:03 61.73599 -2.35629 36253 ft 370 kts 301°
2026-04-25 05:04 61.75675 -2.45566 36256 ft 370 kts 301°
2026-04-25 05:04 61.77746 -2.55532 36260 ft 370 kts 300°
2026-04-25 05:05 61.79805 -2.65521 36262 ft 371 kts 300°
2026-04-25 05:05 61.81856 -2.75535 36256 ft 371 kts 300°
2026-04-25 05:06 61.83905 -2.85560 36258 ft 371 kts 300°
2026-04-25 05:06 61.85955 -2.95606 36262 ft 371 kts 300°
2026-04-25 05:07 61.87995 -3.05668 36262 ft 372 kts 300°
2026-04-25 05:07 61.90018 -3.15686 36267 ft 372 kts 300°
2026-04-25 05:08 61.92041 -3.25798 36269 ft 372 kts 300°
2026-04-25 05:08 61.94058 -3.35914 36271 ft 372 kts 300°
2026-04-25 05:09 61.96080 -3.46056 36271 ft 373 kts 299°
2026-04-25 05:09 61.98089 -3.56224 36270 ft 373 kts 299°
2026-04-25 05:10 62.00097 -3.66416 36276 ft 373 kts 299°
2026-04-25 05:10 62.02096 -3.76633 36281 ft 374 kts 299°
2026-04-25 05:11 62.04086 -3.86874 36283 ft 374 kts 299°
2026-04-25 05:11 62.06055 -3.97083 36286 ft 375 kts 299°
2026-04-25 05:12 62.09021 -4.12520 36291 ft 375 kts 298°
2026-04-25 05:12 62.10999 -4.22828 36294 ft 375 kts 298°
2026-04-25 05:13 62.12969 -4.33183 36294 ft 376 kts 298°
2026-04-25 05:13 62.14925 -4.43555 36298 ft 376 kts 298°
2026-04-25 05:14 62.16883 -4.53938 36300 ft 377 kts 298°
2026-04-25 05:15 62.19807 -4.69584 36302 ft 377 kts 298°
2026-04-25 05:15 62.21754 -4.80034 36302 ft 378 kts 298°
2026-04-25 05:16 62.23673 -4.90448 36312 ft 378 kts 298°
2026-04-25 05:16 62.25598 -5.00964 36303 ft 379 kts 297°
2026-04-25 05:17 62.27526 -5.11491 36304 ft 379 kts 297°
2026-04-25 05:17 62.29449 -5.22032 36310 ft 379 kts 297°
2026-04-25 05:18 62.31357 -5.32604 36304 ft 379 kts 297°
2026-04-25 05:18 62.33257 -5.43205 36312 ft 380 kts 297°
2026-04-25 05:19 62.35158 -5.53841 36315 ft 381 kts 297°
2026-04-25 05:19 62.37051 -5.64505 36313 ft 382 kts 297°
2026-04-25 05:20 62.38937 -5.75141 36310 ft 382 kts 297°
2026-04-25 05:20 62.40824 -5.85882 36319 ft 383 kts 297°
2026-04-25 05:21 62.42704 -5.96654 36327 ft 384 kts 297°
2026-04-25 05:21 62.44582 -6.07448 36325 ft 384 kts 296°
2026-04-25 05:22 62.46453 -6.18263 36328 ft 384 kts 296°
2026-04-25 05:22 62.48312 -6.29117 36327 ft 385 kts 296°
2026-04-25 05:23 62.50170 -6.39992 36325 ft 385 kts 296°
2026-04-25 05:23 62.52021 -6.50898 36325 ft 386 kts 296°
2026-04-25 05:24 62.53861 -6.61751 36322 ft 387 kts 296°
2026-04-25 05:24 62.55704 -6.72721 36332 ft 388 kts 296°
2026-04-25 05:25 62.57543 -6.83751 36325 ft 389 kts 296°
2026-04-25 05:25 62.59369 -6.94788 36329 ft 389 kts 295°
2026-04-25 05:26 62.61195 -7.05863 36326 ft 390 kts 295°
2026-04-25 05:26 62.63015 -7.16964 36323 ft 391 kts 295°
2026-04-25 05:27 62.64833 -7.28111 36339 ft 392 kts 295°
2026-04-25 05:27 62.66648 -7.39316 36337 ft 393 kts 295°
2026-04-25 05:28 62.68146 -7.48648 36344 ft 394 kts 295°
2026-04-25 05:28 62.69953 -7.59914 36349 ft 394 kts 295°
2026-04-25 05:29 62.71757 -7.71210 36350 ft 395 kts 295°
2026-04-25 05:29 62.73544 -7.82525 36355 ft 395 kts 294°
2026-04-25 05:30 62.75327 -7.93892 36360 ft 396 kts 294°
2026-04-25 05:30 62.77105 -8.05265 36359 ft 396 kts 294°
2026-04-25 05:31 62.78867 -8.16608 36360 ft 397 kts 294°
2026-04-25 05:31 62.80627 -8.28053 36359 ft 397 kts 294°
2026-04-25 05:32 62.82385 -8.39519 36363 ft 398 kts 294°
2026-04-25 05:32 62.84133 -8.51019 36361 ft 399 kts 294°
2026-04-25 05:33 62.85876 -8.62554 36363 ft 399 kts 294°
2026-04-25 05:33 62.87615 -8.74110 36364 ft 399 kts 293°
2026-04-25 05:34 62.89345 -8.85700 36365 ft 400 kts 293°
2026-04-25 05:34 62.91052 -8.97248 36368 ft 401 kts 293°
2026-04-25 05:35 62.92767 -9.08910 36369 ft 402 kts 292°
2026-04-25 05:35 62.94480 -9.20600 36374 ft 402 kts 292°
2026-04-25 05:36 62.96180 -9.32313 36379 ft 403 kts 292°
2026-04-25 05:36 62.97863 -9.44065 36375 ft 403 kts 292°
2026-04-25 05:37 62.99552 -9.55850 36376 ft 404 kts 292°
2026-04-25 05:37 63.01236 -9.67642 36376 ft 404 kts 292°
2026-04-25 05:38 63.02912 -9.79480 36379 ft 405 kts 291°
2026-04-25 05:38 63.04573 -9.91360 36380 ft 406 kts 291°
2026-04-25 05:39 63.06226 -10.03276 36385 ft 407 kts 291°
2026-04-25 05:39 63.07876 -10.15240 36386 ft 407 kts 291°
2026-04-25 05:40 63.09514 -10.27214 36384 ft 408 kts 291°
2026-04-25 05:40 63.11155 -10.39199 36388 ft 408 kts 291°
2026-04-25 05:41 63.12772 -10.51144 36387 ft 408 kts 290°
2026-04-25 05:41 63.14392 -10.63194 36388 ft 409 kts 290°
2026-04-25 05:42 63.16002 -10.75288 36391 ft 410 kts 290°
2026-04-25 05:42 63.17601 -10.87395 36387 ft 410 kts 290°
2026-04-25 05:43 63.19193 -10.99550 36392 ft 411 kts 290°
2026-04-25 05:43 63.20779 -11.11717 36386 ft 411 kts 290°
2026-04-25 05:44 63.22358 -11.23929 36394 ft 412 kts 289°
2026-04-25 05:44 63.23915 -11.36169 36391 ft 412 kts 289°
2026-04-25 05:45 63.25459 -11.48347 36396 ft 413 kts 289°
2026-04-25 05:45 63.27010 -11.60632 36396 ft 413 kts 289°
2026-04-25 05:46 63.28557 -11.72944 36398 ft 414 kts 289°
2026-04-25 05:46 63.30095 -11.85272 36396 ft 414 kts 288°
2026-04-25 05:47 63.31618 -11.97643 36401 ft 415 kts 288°
2026-04-25 05:47 63.33131 -12.10033 36397 ft 415 kts 288°
2026-04-25 05:48 63.34638 -12.22436 36398 ft 415 kts 288°
2026-04-25 05:48 63.36135 -12.34863 36402 ft 416 kts 288°
2026-04-25 05:49 63.37621 -12.47341 36399 ft 416 kts 287°
2026-04-25 05:49 63.39093 -12.59808 36401 ft 416 kts 287°
2026-04-25 05:50 63.40551 -12.72223 36402 ft 416 kts 287°
2026-04-25 05:50 63.42004 -12.84753 36401 ft 417 kts 287°
2026-04-25 05:51 63.43441 -12.97296 36397 ft 417 kts 287°
2026-04-25 05:51 63.44877 -13.09860 36397 ft 417 kts 287°
2026-04-25 05:52 63.46305 -13.22419 36405 ft 417 kts 286°
2026-04-25 05:52 63.47724 -13.35012 36405 ft 417 kts 286°
2026-04-25 05:53 63.49126 -13.47626 36399 ft 418 kts 286°
2026-04-25 05:53 63.50515 -13.60264 36406 ft 418 kts 286°
2026-04-25 05:54 63.51902 -13.72912 36412 ft 418 kts 285°
2026-04-25 05:54 63.53946 -13.91826 36408 ft 418 kts 285°
2026-04-25 05:55 63.55307 -14.04522 36421 ft 418 kts 285°
2026-04-25 05:55 63.56657 -14.17234 36409 ft 419 kts 285°
2026-04-25 05:56 63.57987 -14.29958 36419 ft 419 kts 285°
2026-04-25 05:56 63.59315 -14.42710 36419 ft 419 kts 285°
2026-04-25 05:57 63.60621 -14.55385 36417 ft 419 kts 285°
2026-04-25 05:57 63.61928 -14.68181 36417 ft 420 kts 284°
2026-04-25 05:58 63.63220 -14.80987 36418 ft 420 kts 284°
2026-04-25 05:58 63.64499 -14.93818 36415 ft 420 kts 284°
2026-04-25 05:59 63.65773 -15.06649 36410 ft 420 kts 284°
2026-04-25 05:59 63.67031 -15.19506 36406 ft 420 kts 283°
2026-04-25 06:00 63.68272 -15.32384 36395 ft 421 kts 283°
2026-04-25 06:00 63.69510 -15.45279 36405 ft 421 kts 283°
2026-04-25 06:01 63.70740 -15.58197 36407 ft 421 kts 283°
2026-04-25 06:01 63.71952 -15.71055 36396 ft 422 kts 283°
2026-04-25 06:02 63.73150 -15.84008 36400 ft 422 kts 282°
2026-04-25 06:02 63.74348 -15.96987 36407 ft 422 kts 282°
2026-04-25 06:03 63.75541 -16.09985 36404 ft 423 kts 282°
2026-04-25 06:03 63.76729 -16.23168 36415 ft 436 kts 282°
2026-04-25 06:04 63.77948 -16.36831 36416 ft 449 kts 282°
2026-04-25 06:04 63.79176 -16.50775 36408 ft 453 kts 281°
2026-04-25 06:05 63.80363 -16.64719 36408 ft 454 kts 280°
2026-04-25 06:05 63.81239 -16.78873 36410 ft 454 kts 276°
2026-04-25 06:06 63.81867 -16.93101 36407 ft 454 kts 275°
2026-04-25 06:06 63.82488 -17.07333 36405 ft 454 kts 276°
2026-04-25 06:07 63.83165 -17.21566 36402 ft 455 kts 276°
2026-04-25 06:07 63.83856 -17.35820 36398 ft 455 kts 276°
2026-04-25 06:08 63.84521 -17.50097 35998 ft 456 kts 275°
2026-04-25 06:08 63.84847 -17.57249 35696 ft 457 kts 275°
2026-04-25 06:08 63.85170 -17.64413 35396 ft 457 kts 275°
2026-04-25 06:09 63.85488 -17.71588 35105 ft 458 kts 275°
2026-04-25 06:09 63.85804 -17.78784 34811 ft 459 kts 275°
2026-04-25 06:09 63.86115 -17.85909 34527 ft 460 kts 275°
2026-04-25 06:09 63.86424 -17.93128 34216 ft 460 kts 275°
2026-04-25 06:10 63.86727 -18.00375 33887 ft 461 kts 274°
2026-04-25 06:10 63.87027 -18.07652 33560 ft 462 kts 274°
2026-04-25 06:10 63.87327 -18.14917 33241 ft 463 kts 274°
2026-04-25 06:10 63.87623 -18.22204 32923 ft 463 kts 274°
2026-04-25 06:11 63.87917 -18.29484 32555 ft 464 kts 274°
2026-04-25 06:11 63.88211 -18.36772 32166 ft 464 kts 274°
2026-04-25 06:11 63.88501 -18.44081 31792 ft 465 kts 274°
2026-04-25 06:11 63.88784 -18.51389 31410 ft 465 kts 274°
2026-04-25 06:12 63.89065 -18.58717 31037 ft 466 kts 274°
2026-04-25 06:12 63.89344 -18.66044 30670 ft 466 kts 274°
2026-04-25 06:12 63.89614 -18.73285 30283 ft 467 kts 274°
2026-04-25 06:12 63.89882 -18.80644 29863 ft 468 kts 273°
2026-04-25 06:13 63.90149 -18.88013 29435 ft 469 kts 273°
2026-04-25 06:13 63.90416 -18.95396 29015 ft 469 kts 273°
2026-04-25 06:13 63.90682 -19.02813 28607 ft 470 kts 273°
2026-04-25 06:14 63.91195 -19.17649 27803 ft 472 kts 273°
2026-04-25 06:14 63.91444 -19.25116 27412 ft 474 kts 273°
2026-04-25 06:14 63.91689 -19.32596 27016 ft 475 kts 273°
2026-04-25 06:14 63.91928 -19.40094 26630 ft 476 kts 273°
2026-04-25 06:15 63.92088 -19.45071 26380 ft 477 kts 273°
2026-04-25 06:15 63.92327 -19.52581 26008 ft 478 kts 273°
2026-04-25 06:15 63.92562 -19.60121 25644 ft 478 kts 273°
2026-04-25 06:15 63.92793 -19.67674 25283 ft 479 kts 273°
2026-04-25 06:16 63.93098 -19.77706 24799 ft 480 kts 273°
2026-04-25 06:16 63.93252 -19.82829 24559 ft 480 kts 273°
2026-04-25 06:16 63.93476 -19.90395 24211 ft 478 kts 273°
2026-04-25 06:16 63.93687 -19.97813 23819 ft 476 kts 273°
2026-04-25 06:17 63.93892 -20.05297 23215 ft 472 kts 272°
2026-04-25 06:17 63.94090 -20.12724 22621 ft 468 kts 272°
2026-04-25 06:17 63.94286 -20.20099 22039 ft 465 kts 272°
2026-04-25 06:17 63.94478 -20.27403 21470 ft 461 kts 272°
2026-04-25 06:18 63.94666 -20.34639 20911 ft 457 kts 272°
2026-04-25 06:18 63.94857 -20.41842 20364 ft 454 kts 272°
2026-04-25 06:18 63.95049 -20.48978 19827 ft 450 kts 272°
2026-04-25 06:18 63.95240 -20.56047 19304 ft 446 kts 272°
2026-04-25 06:19 63.95426 -20.63060 18782 ft 443 kts 272°
2026-04-25 06:19 63.95604 -20.70028 18208 ft 439 kts 272°
2026-04-25 06:19 63.95777 -20.76927 17624 ft 434 kts 272°
2026-04-25 06:19 63.95944 -20.83754 17051 ft 430 kts 272°
2026-04-25 06:20 63.96106 -20.90503 16474 ft 425 kts 272°
2026-04-25 06:20 63.96261 -20.97189 15891 ft 420 kts 272°
2026-04-25 06:20 63.96409 -21.03790 15322 ft 415 kts 272°
2026-04-25 06:20 63.96553 -21.10316 14768 ft 411 kts 272°
2026-04-25 06:21 63.96695 -21.16788 14215 ft 407 kts 272°
2026-04-25 06:21 63.96836 -21.23178 13610 ft 402 kts 273°
2026-04-25 06:21 63.96970 -21.29491 13001 ft 397 kts 272°
2026-04-25 06:21 63.97096 -21.35707 12396 ft 386 kts 272°
2026-04-25 06:22 63.97217 -21.41675 12056 ft 368 kts 273°
2026-04-25 06:22 63.97583 -21.47295 11801 ft 351 kts 284°
2026-04-25 06:22 63.98372 -21.52409 11540 ft 336 kts 294°
2026-04-25 06:22 63.99325 -21.57052 11303 ft 321 kts 294°
2026-04-25 06:23 64.00244 -21.61573 11147 ft 306 kts 294°
2026-04-25 06:23 64.01110 -21.65863 11013 ft 290 kts 293°
2026-04-25 06:23 64.01931 -21.69954 10837 ft 279 kts 293°
2026-04-25 06:23 64.02730 -21.73936 10486 ft 274 kts 293°
2026-04-25 06:24 64.03523 -21.77881 10088 ft 272 kts 293°
2026-04-25 06:24 64.04306 -21.81786 9634 ft 270 kts 293°
2026-04-25 06:24 64.05080 -21.85669 9183 ft 268 kts 293°
2026-04-25 06:24 64.05848 -21.89532 8736 ft 266 kts 293°
2026-04-25 06:25 64.06609 -21.93365 8299 ft 265 kts 293°
2026-04-25 06:25 64.07368 -21.97184 7842 ft 264 kts 292°
2026-04-25 06:25 64.08125 -22.01000 7395 ft 262 kts 292°
2026-04-25 06:25 64.08650 -22.04942 6946 ft 259 kts 274°
2026-04-25 06:26 64.08618 -22.09035 6469 ft 258 kts 266°
2026-04-25 06:26 64.08529 -22.13132 5952 ft 259 kts 264°
2026-04-25 06:26 64.08430 -22.17261 5448 ft 259 kts 263°
2026-04-25 06:26 64.08329 -22.21387 4943 ft 260 kts 263°
2026-04-25 06:27 64.08232 -22.25521 4441 ft 260 kts 263°
2026-04-25 06:27 64.08137 -22.29577 4026 ft 250 kts 262°
2026-04-25 06:27 64.08051 -22.33427 3728 ft 236 kts 262°
2026-04-25 06:27 64.07970 -22.37028 3458 ft 220 kts 261°
2026-04-25 06:28 64.07889 -22.40408 3175 ft 206 kts 260°
2026-04-25 06:28 64.07809 -22.43544 2914 ft 196 kts 259°
2026-04-25 06:28 64.07727 -22.46616 2676 ft 192 kts 258°
2026-04-25 06:28 64.07644 -22.49637 2436 ft 190 kts 258°
2026-04-25 06:29 64.07564 -22.52628 2196 ft 185 kts 258°
2026-04-25 06:29 64.07330 -22.55314 1912 ft 163 kts 239°
2026-04-25 06:29 64.06813 -22.57436 1687 ft 145 kts 222°
2026-04-25 06:29 64.06123 -22.58985 1534 ft 135 kts 207°
2026-04-25 06:30 64.05327 -22.59989 1413 ft 129 kts 193°
2026-04-25 06:30 64.04469 -22.60467 1257 ft 127 kts 181°
2026-04-25 06:30 64.03591 -22.60555 1091 ft 126 kts 174°
2026-04-25 06:30 64.02714 -22.60529 921 ft 127 kts 175°
2026-04-25 06:31 64.01823 -22.60541 735 ft 128 kts 176°
2026-04-25 06:31 64.00935 -22.60538 569 ft 126 kts 175°
2026-04-25 06:31 64.00067 -22.60545 401 ft 123 kts 177°
2026-04-25 06:31 63.99212 -22.60546 239 ft 123 kts 175°
2026-04-25 06:32 63.98381 -22.60548 167 ft 112 kts 176°
2026-04-25 06:32 63.97829 -22.60545 159 ft 37 kts 181°
2026-04-25 06:32 63.97732 -22.60574 159 ft 9 kts 201°
2026-04-25 06:32 63.97631 -22.60558 159 ft 23 kts 174°
2026-04-25 06:33 63.97467 -22.60567 156 ft 19 kts 202°
2026-04-25 06:33 63.97443 -22.60776 155 ft 15 kts 283°
2026-04-25 06:33 63.97501 -22.60937 155 ft 16 kts 348°
2026-04-25 06:33 63.97645 -22.60945 156 ft 24 kts 360°
2026-04-25 06:34 63.97810 -22.60945 158 ft 23 kts
2026-04-25 06:34 63.97970 -22.60946 160 ft 22 kts 358°
2026-04-25 06:34 63.98118 -22.60946 161 ft 21 kts
2026-04-25 06:34 63.98263 -22.60940 162 ft 20 kts
2026-04-25 06:35 63.98403 -22.60937 162 ft 20 kts
2026-04-25 06:35 63.98540 -22.60929 162 ft 19 kts 360°
2026-04-25 06:35 63.98669 -22.60938 164 ft 17 kts 359°
2026-04-25 06:35 63.98784 -22.60943 166 ft 16 kts 355°
2026-04-25 06:36 63.98886 -22.60948 167 ft 14 kts
2026-04-25 06:36 63.98968 -22.60944 168 ft 10 kts
2026-04-25 06:36 63.99030 -22.60945 168 ft 9 kts 359°
2026-04-25 06:36 63.99102 -22.60943 169 ft 12 kts
2026-04-25 06:37 63.99167 -22.61030 169 ft 13 kts 285°
2026-04-25 06:37 63.99172 -22.61261 168 ft 16 kts 270°
2026-04-25 06:37 63.99172 -22.61506 167 ft 15 kts 270°
2026-04-25 06:37 63.99172 -22.61780 164 ft 20 kts 269°
2026-04-25 06:38 63.99192 -22.61971 162 ft 10 kts 328°
2026-04-25 06:38 63.99268 -22.61992 163 ft 12 kts 359°
2026-04-25 06:38 63.99361 -22.61994 164 ft 14 kts 360°
2026-04-25 06:38 63.99411 -22.62042 164 ft 5 kts 293°
2026-04-25 06:39 63.99399 -22.62124 163 ft 6 kts 238°
2026-04-25 06:39 63.99385 -22.62172 162 ft 0 kts 238°